Location: Newark
(45.2500°N, 7.5833°E)
Time: 16:57:52
(UTC+00:00)

SR - All Passes

Search period start: 24 January 2020 00:00
Search period end: 03 February 2020 00:00
Orbit: 574 x 882 km, 66.7° (Epoch: 23 January)

Date Brightness Start Highest point End Pass type
(mag) Time Alt. Az. Time Alt. Az. Time Alt. Az.
24 Jan - 00:01:54 10° W 00:06:26 22° NW 00:10:58 10° NNE night (unlit)
24 Jan - 05:15:47 10° NNW 05:20:24 24° NE 05:24:43 10° E visible
24 Jan - 06:57:32 10° NW 07:03:08 72° WSW 07:08:13 10° SSE daylight
24 Jan - 21:28:11 10° SSW 21:33:50 55° ESE 21:39:37 10° NE night (unlit)
24 Jan - 23:10:59 10° WSW 23:16:16 33° NW 23:21:36 10° NNE night (unlit)
25 Jan - 00:58:18 10° NW 01:00:16 12° NNW 01:02:14 10° N night (unlit)
25 Jan - 04:26:31 10° N 04:30:06 17° NNE 04:33:32 10° ENE visible
25 Jan - 06:07:49 10° NNW 06:13:26 63° NE 06:18:32 10° SE visible
25 Jan - 07:50:58 10° WNW 07:54:56 21° WSW 07:58:42 10° SSW daylight
25 Jan - 20:39:26 10° SSE 20:44:25 30° ESE 20:49:30 10° NE night (unlit)
25 Jan - 22:20:33 10° SW 22:26:17 54° NW 22:32:07 10° NNE night (unlit)
26 Jan - 00:06:14 10° WNW 00:09:46 16° NNW 00:13:17 10° N night (unlit)
26 Jan - 03:37:31 10° N 03:39:37 12° NNE 03:41:41 10° NE visible
26 Jan - 05:18:17 10° NNW 05:23:30 37° NE 05:28:20 10° ESE visible
26 Jan - 07:00:32 10° NW 07:05:40 40° WSW 07:10:22 10° S daylight
26 Jan - 19:51:43 10° SE 19:55:10 16° ESE 19:58:40 10° ENE night (unlit)
26 Jan - 21:30:38 10° SSW 21:36:30 90° NNW 21:42:29 10° NNE night (unlit)
26 Jan - 23:14:49 10° W 23:19:25 23° NW 23:24:02 10° NNE night (unlit)
27 Jan - 04:28:52 10° NNW 04:33:23 23° NE 04:37:37 10° E visible
27 Jan - 06:10:35 10° NW 06:16:10 76° WSW 06:21:14 10° SSE visible
27 Jan - 07:55:59 10° W 07:57:08 11° W 07:58:15 10° WSW daylight
27 Jan - 20:41:16 10° S 20:46:54 52° ESE 20:52:39 10° NE night (unlit)
27 Jan - 22:23:56 10° WSW 22:29:16 35° NW 22:34:40 10° NNE night (unlit)
28 Jan - 00:11:07 10° NW 00:13:14 12° NNW 00:15:20 10° N night (unlit)
28 Jan - 03:39:37 10° N 03:43:04 16° NNE 03:46:21 10° ENE visible
28 Jan - 05:20:53 10° NNW 05:26:26 60° NE 05:31:30 10° SE visible
28 Jan - 07:03:55 10° WNW 07:08:01 22° WSW 07:11:51 10° SSW daylight
28 Jan - 19:52:36 10° SSE 19:57:30 29° ESE 20:02:29 10° NE night (unlit)
28 Jan - 21:33:32 10° SW 21:39:19 56° NW 21:45:10 10° NNE night (unlit)
28 Jan - 23:19:06 10° WNW 23:22:45 16° NNW 23:26:22 10° N night (unlit)
29 Jan - 02:50:42 10° N 02:52:34 11° NNE 02:54:25 10° NE visible
29 Jan - 04:31:21 10° NNW 04:36:30 35° NE 04:41:15 10° ESE visible
29 Jan - 06:13:33 10° NW 06:18:43 42° WSW 06:23:26 10° S visible
29 Jan - 19:05:01 10° SE 19:08:16 15° ESE 19:11:33 10° ENE night (unlit)
29 Jan - 20:43:40 10° SSW 20:49:33 86° ESE 20:55:31 10° NNE night (unlit)
29 Jan - 22:27:44 10° W 22:32:26 24° NW 22:37:06 10° NNE night (unlit)
30 Jan - 03:41:58 10° NNW 03:46:22 22° NE 03:50:29 10° E visible
30 Jan - 05:23:38 10° NW 05:29:12 81° WSW 05:34:15 10° SSE visible
30 Jan - 07:08:34 10° W 07:10:12 11° W 07:11:48 10° WSW daylight
30 Jan - 19:54:21 10° S 19:59:58 49° ESE 20:05:40 10° NE night (unlit)
30 Jan - 21:36:52 10° WSW 21:42:17 36° NW 21:47:43 10° NNE night (unlit)
30 Jan - 23:23:55 10° NW 23:26:11 12° NNW 23:28:27 10° N night (unlit)
31 Jan - 02:52:45 10° N 02:56:01 15° NNE 02:59:10 10° ENE visible
31 Jan - 04:33:57 10° NNW 04:39:27 56° NE 04:44:28 10° SE visible
31 Jan - 06:16:54 10° NW 06:21:04 23° WSW 06:25:00 10° SSW visible
31 Jan - 19:05:45 10° SSE 19:10:33 27° ESE 19:15:27 10° NE visible
31 Jan - 20:46:32 10° SW 20:52:21 59° NW 20:58:12 10° NNE night (unlit)
31 Jan - 22:31:58 10° WNW 22:35:43 17° NNW 22:39:26 10° N night (unlit)
01 Feb - 02:03:55 10° N 02:05:31 11° NNE 02:07:06 10° NE visible
01 Feb - 03:44:26 10° NNW 03:49:30 33° NE 03:54:10 10° ESE visible
01 Feb - 05:26:34 10° NW 05:31:45 45° WSW 05:36:30 10° S visible
01 Feb - 18:18:20 10° SE 18:21:21 14° ESE 18:24:23 10° ENE visible
01 Feb - 19:56:42 10° SSW 20:02:36 83° ESE 20:08:33 10° NE visible
01 Feb - 21:40:38 10° W 21:45:25 24° NW 21:50:10 10° NNE night (unlit)
02 Feb - 02:55:04 10° NNW 02:59:19 21° NE 03:03:21 10° E visible
02 Feb - 04:36:40 10° NNW 04:42:13 85° WSW 04:47:15 10° SSE visible
02 Feb - 06:21:18 10° WNW 06:23:17 12° W 06:25:13 10° WSW visible
02 Feb - 19:07:27 10° S 19:13:01 47° ESE 19:18:41 10° NE visible
02 Feb - 20:49:50 10° WSW 20:55:18 38° NW 21:00:46 10° NNE visible
02 Feb - 22:36:44 10° NW 22:39:08 12° NNW 22:41:32 10° N night (unlit)
